Flag for Brazil Weather past 2 weeks in Cuiabá, Mato Grosso, Brazil

Now
70 °F

Clear.


Feels Like: 70 °F
Forecast: 66 / 95 °F
Wind: 2 mph from East

Location: Cuiaba Aeroporto

Current Time: Aug 4, 2015 at 2:36:36 AM

Latest Report: Aug 4, 2015 at 2:00 AM


Visibility: 10 mi

Pressure: 29.95 "Hg

Humidity: 73%

Dew point: 61 °F

Location of CuiabáLocation

Historic Weather in Cuiabá — Graph

°F

Cuiabá temperature yesterday

Maximum temperature yesterday: 97 °F (at 2:00 PM)
Minimum temperature yesterday: 64 °F (at 5:00 AM)
Average temperature yesterday: 80 °F

Past Weeks' High & Low Weather Summary

 TemperatureHumidityPressure
High99 °F (Jul 29, 1:00 PM)94% (Jul 21, 8:00 AM)30.15 "Hg (Jul 21, 8:00 AM)
Low61 °F (Jul 23, 5:00 AM)16% (Jul 29, 1:00 PM)29.83 "Hg (Aug 2, 4:00 PM)
Average77 °F56%29.99 "Hg
* Reported Jul 20 1:00 AM — Aug 4 1:00 AM, Cuiabá, Weather by CustomWeather, © 2015

Note: Actual official high and low records may vary slightly from our data, if they occured in-between our weather recording intervals... More about our weather records

Advertising

Cuiabá weather history for previous 24 hours

 ConditionsComfort  
Time TempWeatherWind HumidityBarometerVisibility
1:00 AM
Tue, Aug 4
73 °FClear.3 mph57%29.98 "Hg10 mi
12:00 AM73 °FClear.3 mph57%29.98 "Hg10 mi
11:00 PM
Mon, Aug 3
73 °FClear.3 mph57%29.98 "Hg10 mi
10:00 PM77 °FClear.3 mph47%29.98 "Hg10 mi
9:00 PM79 °FClear.2 mph42%29.95 "Hg10 mi
8:00 PM81 °FClear.2 mph42%29.95 "Hg10 mi
7:00 PM81 °FClear.5 mph39%29.92 "Hg10 mi
6:00 PM88 °FClear.2 mph25%29.92 "Hg10 mi
5:00 PM91 °FSunny.3 mph23%29.89 "Hg10 mi
4:00 PM95 °FSunny.7 mph19%29.89 "Hg10 mi
3:00 PM95 °FSunny.6 mph19%29.89 "Hg10 mi
2:00 PM97 °FSunny.7 mph18%29.92 "Hg10 mi
1:00 PM95 °FSunny.8 mph18%29.95 "Hg10 mi
12:00 PM93 °FSunny.6 mph21%29.98 "Hg10 mi
11:00 AM91 °FSunny.2 mph26%30.01 "Hg10 mi
10:00 AM88 °FSunny.5 mph31%30.04 "Hg10 mi
9:00 AM81 °FSunny.6 mph39%30.01 "Hg10 mi
8:00 AM75 °FSunny.5 mph50%30.01 "Hg10 mi
7:00 AM66 °FSunny.6 mph73%29.98 "Hg10 mi
6:00 AM66 °FClear.3 mph68%29.95 "Hg10 mi
5:00 AM64 °FClear.3 mph78%29.92 "Hg10 mi
4:00 AM68 °FClear.2 mph64%29.92 "Hg10 mi
3:00 AM68 °FClear.2 mph60%29.92 "Hg10 mi
2:00 AM68 °FClear.No wind60%29.92 "Hg10 mi
Weather by CustomWeather, © 2015

See weather overviewHow to use our weather pages